Date,TemperatureHighF,TemperatureAvgF,TemperatureLowF,DewpointHighF,DewpointAvgF,DewpointLowF,HumidityHigh,HumidityAvg,HumidityLow,PressureMaxIn,PressureMinIn,WindSpeedMaxMPH,WindSpeedAvgMPH,GustSpeedMaxMPH,PrecipitationSumIn
2013-3-1,68,58,48,27,20,10,35,23,19,30.46,30.27,12,3,15,0.00
2013-3-2,76,61,46,34,29,23,50,31,21,30.31,29.99,6,1,12,0.00
2013-3-3,72,64,56,34,29,22,43,27,22,29.99,29.71,28,10,36,0.00
2013-3-4,72,59,49,36,32,25,55,38,23,30.05,29.77,13,1,20,0.00
2013-3-5,71,59,44,32,29,26,53,33,20,30.08,29.85,19,5,29,0.00
2013-3-6,65,57,50,34,31,24,52,38,24,29.91,29.78,16,8,23,0.00
2013-3-7,58,52,46,33,32,30,57,46,36,29.88,29.78,14,5,21,0.00
2013-3-8,50,45,40,39,35,32,83,67,51,29.85,29.67,20,7,32,0.00
2013-3-9,59,49,42,37,33,28,78,56,32,30.19,29.85,18,6,22,0.00
2013-3-10,63,54,44,34,21,16,61,30,17,30.32,30.18,18,6,21,0.00
2013-3-11,69,57,42,26,23,20,49,29,18,30.24,30.06,10,2,12,0.00
2013-3-12,72,63,53,31,27,22,33,26,18,30.16,30.03,11,3,14,0.00
2013-3-13,77,67,57,34,30,26,34,25,17,30.20,30.06,9,3,13,0.00
2013-3-14,82,71,61,33,28,24,30,21,13,30.14,29.95,9,3,11,0.00
2013-3-15,86,73,61,34,26,14,32,18,7,29.95,29.73,14,4,25,0.00
2013-3-16,82,73,61,29,20,-1,26,15,5,29.77,29.62,15,5,19,0.00
2013-3-17,78,69,59,24,11,-3,25,12,5,29.83,29.62,11,4,19,0.00
2013-3-18,74,65,57,15,8,3,16,11,8,29.95,29.79,12,4,17,0.00
2013-3-19,75,67,58,25,18,8,21,15,10,29.97,29.80,14,3,19,0.00
2013-3-20,71,67,62,35,29,19,33,25,17,29.93,29.70,23,10,33,0.00
2013-3-21,74,65,54,34,20,2,44,21,7,29.79,29.64,20,5,24,0.00
2013-3-22,70,61,54,17,3,-23,23,12,3,29.80,29.65,21,6,23,0.00
2013-3-23,58,50,42,12,6,-18,25,18,4,30.14,29.82,17,8,28,0.00
2013-3-24,65,55,42,16,7,1,24,15,9,30.12,29.92,9,3,10,0.00
2013-3-25,73,61,49,19,14,9,26,16,10,30.02,29.84,8,3,15,0.00
2013-3-26,76,68,60,28,18,4,24,15,6,29.84,29.67,18,7,26,0.00
2013-3-27,73,66,59,35,29,22,35,26,15,29.83,29.71,19,7,29,0.00
2013-3-28,74,65,58,37,34,29,46,32,20,29.94,29.83,14,5,20,0.00
2013-3-29,80,70,61,35,30,22,33,23,16,30.03,29.89,11,4,15,0.00
2013-3-30,80,71,64,34,29,23,31,21,16,29.97,29.84,10,2,12,0.00
2013-3-31,76,69,60,39,34,29,44,28,19,29.88,29.75,26,10,27,0.00